• In Belarus
  • List of Countries
  • For 7 days
  • Water Temperature
  • Satellite Maps
  • Weather Map
  • Weather Widgets
  • user-avatar
    Login

    Hourly Weather Arkadia

    Today, 24 June, Sunday

    Time Temperature Precipitation Wind Pressure Humidity
    00:00 +16°C° 0.1 mm 1 mps 665 mmHg 80%
    01:00 +15°C° 0 mm 1 mps 664 mmHg 82%
    02:00 +15°C° 0 mm 1 mps 664 mmHg 83%
    03:00 +14°C° 0 mm 1 mps 664 mmHg 84%
    04:00 +14°C° 0 mm 1 mps 664 mmHg 84%
    05:00 +15°C° 0 mm 1 mps 665 mmHg 79%
    06:00 +18°C° 0 mm 1 mps 665 mmHg 74%
    07:00 +20°C° 0 mm 1 mps 666 mmHg 67%
    08:00 +21°C° 0.1 mm 1 mps 666 mmHg 63%
    09:00 +21°C° 0.1 mm 2 mps 666 mmHg 59%
    10:00 +23°C° 0.1 mm 2 mps 667 mmHg 55%
    11:00 +21°C° 0.7 mm 2 mps 667 mmHg 58%
    12:00 +21°C° 0.7 mm 2 mps 667 mmHg 60%
    13:00 +20°C° 0 mm 2 mps 666 mmHg 65%
    14:00 +20°C° 1.1 mm 2 mps 666 mmHg 66%
    15:00 +20°C° 1.1 mm 2 mps 666 mmHg 67%
    16:00 +21°C° 1.1 mm 1 mps 666 mmHg 68%
    17:00 +19°C° 0.8 mm 1 mps 666 mmHg 73%
    18:00 +18°C° 0.8 mm 1 mps 666 mmHg 77%
    19:00 +16°C° 0.8 mm 1 mps 665 mmHg 82%
    20:00 +16°C° 0.3 mm 1 mps 665 mmHg 83%
    21:00 +15°C° 0.3 mm 1 mps 665 mmHg 85%
    22:00 +15°C° 0.3 mm 1 mps 665 mmHg 87%
    23:00 +15°C° 0.3 mm 1 mps 665 mmHg 88%

    Tomorrow, 25 June, Monday

    Time Temperature Precipitation Wind Pressure Humidity
    00:00 +15°C° 0.3 mm 1 mps 665 mmHg 88%
    01:00 +14°C° 0.3 mm 1 mps 665 mmHg 89%
    02:00 +14°C° 0.2 mm 1 mps 665 mmHg 90%
    03:00 +14°C° 0.2 mm 1 mps 664 mmHg 90%
    04:00 +14°C° 0.2 mm 1 mps 664 mmHg 90%
    05:00 +15°C° 0.2 mm 1 mps 664 mmHg 86%
    06:00 +16°C° 0.2 mm 2 mps 665 mmHg 81%
    07:00 +17°C° 0.2 mm 2 mps 665 mmHg 77%
    08:00 +17°C° 0.7 mm 2 mps 665 mmHg 73%
    09:00 +18°C° 0.7 mm 2 mps 666 mmHg 69%
    10:00 +19°C° 0.7 mm 2 mps 666 mmHg 65%
    11:00 +19°C° 1.5 mm 2 mps 666 mmHg 66%
    12:00 +19°C° 1.5 mm 2 mps 666 mmHg 67%
    13:00 +19°C° 1.5 mm 2 mps 665 mmHg 69%
    14:00 +18°C° 1.8 mm 2 mps 665 mmHg 70%
    15:00 +18°C° 1.8 mm 2 mps 665 mmHg 72%
    16:00 +18°C° 1.8 mm 2 mps 664 mmHg 74%
    17:00 +18°C° 1.5 mm 1 mps 664 mmHg 77%
    18:00 +16°C° 1.5 mm 1 mps 664 mmHg 81%
    19:00 +15°C° 1.5 mm 1 mps 664 mmHg 84%
    20:00 +15°C° 0.6 mm 1 mps 664 mmHg 85%
    21:00 +15°C° 0.6 mm 1 mps 663 mmHg 86%
    22:00 +15°C° 0.6 mm 1 mps 663 mmHg 87%
    23:00 +14°C° 1.5 mm 1 mps 663 mmHg 88%

    Day after tomorrow, 26 June, Tuesday

    Time Temperature Precipitation Wind Pressure Humidity
    00:00 +14°C° 1.5 mm 1 mps 663 mmHg 88%
    01:00 +14°C° 1.5 mm 1 mps 662 mmHg 88%
    02:00 +14°C° 1.9 mm 1 mps 662 mmHg 89%
    03:00 +14°C° 1.9 mm 1 mps 662 mmHg 90%
    04:00 +14°C° 1.9 mm 1 mps 661 mmHg 90%
    05:00 +14°C° 1.2 mm 1 mps 661 mmHg 87%
    06:00 +15°C° 1.2 mm 1 mps 661 mmHg 85%
    07:00 +15°C° 1.2 mm 1 mps 661 mmHg 82%
    08:00 +16°C° 0.6 mm 1 mps 661 mmHg 78%
    09:00 +18°C° 0.6 mm 1 mps 661 mmHg 74%
    10:00 +18°C° 0.6 mm 2 mps 662 mmHg 70%
    11:00 +18°C° 1.5 mm 2 mps 661 mmHg 70%
    12:00 +18°C° 1.5 mm 2 mps 661 mmHg 71%
    13:00 +18°C° 1.5 mm 2 mps 661 mmHg 71%
    14:00 +18°C° 2.1 mm 2 mps 661 mmHg 73%
    15:00 +18°C° 2.1 mm 1 mps 660 mmHg 74%
    16:00 +18°C° 2.1 mm 1 mps 660 mmHg 76%
    17:00 +16°C° 1 mm 1 mps 660 mmHg 79%
    18:00 +15°C° 1 mm 1 mps 660 mmHg 82%
    19:00 +15°C° 1 mm 1 mps 660 mmHg 85%
    20:00 +14°C° 0.2 mm 1 mps 660 mmHg 86%
    21:00 +14°C° 0.2 mm 1 mps 660 mmHg 87%
    22:00 +14°C° 0.2 mm 1 mps 660 mmHg 88%
    23:00 +13°C° 0 mm 1 mps 660 mmHg 88%

    27 June, Wednesday

    Time Temperature Precipitation Wind Pressure Humidity
    00:00 +13°C° 0 mm 1 mps 660 mmHg 89%
    01:00 +13°C° 0 mm 1 mps 659 mmHg 89%
    02:00 +13°C° 0 mm 1 mps 659 mmHg 90%
    03:00 +12°C° 0 mm 1 mps 659 mmHg 90%
    04:00 +12°C° 0 mm 1 mps 659 mmHg 90%
    05:00 +13°C° 0 mm 1 mps 659 mmHg 85%
    06:00 +15°C° 0 mm 1 mps 660 mmHg 80%
    07:00 +16°C° 0 mm 1 mps 660 mmHg 76%
    08:00 +18°C° 0 mm 1 mps 660 mmHg 70%
    09:00 +19°C° 0 mm 1 mps 661 mmHg 65%
    10:00 +21°C° 0 mm 1 mps 661 mmHg 60%
    11:00 +20°C° 0.7 mm 2 mps 661 mmHg 61%
    12:00 +20°C° 0.7 mm 2 mps 661 mmHg 62%
    13:00 +19°C° 0.7 mm 2 mps 661 mmHg 64%
    14:00 +19°C° 1.4 mm 2 mps 661 mmHg 66%
    15:00 +19°C° 1.4 mm 2 mps 660 mmHg 69%
    16:00 +19°C° 1.4 mm 1 mps 660 mmHg 71%
    17:00 +18°C° 0.7 mm 1 mps 660 mmHg 75%
    18:00 +18°C° 0.7 mm 1 mps 660 mmHg 78%
    19:00 +16°C° 0.7 mm 1 mps 660 mmHg 82%
    20:00 +15°C° 0.1 mm 1 mps 660 mmHg 83%
    21:00 +15°C° 0.1 mm 1 mps 660 mmHg 85%
    22:00 +14°C° 0.1 mm 1 mps 660 mmHg 86%
    23:00 +14°C° 0 mm 1 mps 660 mmHg 87%

    28 June, Thursday

    Time Temperature Precipitation Wind Pressure Humidity
    00:00 +14°C° 0 mm 1 mps 660 mmHg 88%
    01:00 +14°C° 0 mm 1 mps 660 mmHg 88%
    02:00 +13°C° 0 mm 1 mps 660 mmHg 89%
    03:00 +13°C° 0 mm 1 mps 660 mmHg 89%
    04:00 +13°C° 0 mm 1 mps 660 mmHg 90%
    05:00 +14°C° 0 mm 1 mps 661 mmHg 84%
    06:00 +16°C° 0 mm 1 mps 661 mmHg 79%
    07:00 +18°C° 0 mm 1 mps 662 mmHg 74%
    08:00 +19°C° 0 mm 1 mps 662 mmHg 69%
    09:00 +20°C° 0 mm 1 mps 663 mmHg 64%
    10:00 +21°C° 0 mm 2 mps 664 mmHg 58%
    11:00 +21°C° 0.1 mm 2 mps 664 mmHg 57%
    12:00 +21°C° 0.1 mm 2 mps 664 mmHg 56%
    13:00 +22°C° 0.1 mm 3 mps 664 mmHg 55%
    14:00 +21°C° 0.1 mm 3 mps 664 mmHg 57%
    15:00 +21°C° 0.1 mm 3 mps 664 mmHg 59%
    16:00 +21°C° 0.1 mm 3 mps 664 mmHg 60%
    17:00 +20°C° 0 mm 3 mps 663 mmHg 66%
    18:00 +18°C° 0 mm 2 mps 663 mmHg 71%
    19:00 +17°C° 0 mm 2 mps 663 mmHg 77%
    20:00 +16°C° 0 mm 2 mps 663 mmHg 80%
    21:00 +16°C° 0 mm 2 mps 663 mmHg 83%
    22:00 +15°C° 0 mm 2 mps 663 mmHg 85%
    23:00 +15°C° 0 mm 2 mps 663 mmHg 86%

    29 June, Friday

    Time Temperature Precipitation Wind Pressure Humidity
    00:00 +14°C° 0 mm 2 mps 663 mmHg 87%
    01:00 +14°C° 0 mm 2 mps 662 mmHg 88%
    02:00 +14°C° 0 mm 2 mps 662 mmHg 88%
    03:00 +13°C° 0 mm 2 mps 662 mmHg 88%
    04:00 +13°C° 0 mm 2 mps 662 mmHg 87%
    05:00 +15°C° 0 mm 2 mps 663 mmHg 82%
    06:00 +16°C° 0 mm 2 mps 663 mmHg 76%
    07:00 +19°C° 0 mm 1 mps 664 mmHg 70%
    08:00 +19°C° 0 mm 2 mps 664 mmHg 63%
    09:00 +21°C° 0 mm 2 mps 665 mmHg 56%
    10:00 +23°C° 0 mm 2 mps 665 mmHg 48%
    11:00 +24°C° 0 mm 2 mps 665 mmHg 48%
    12:00 +24°C° 0 mm 3 mps 665 mmHg 47%
    13:00 +25°C° 0 mm 3 mps 665 mmHg 46%
    14:00 +24°C° 0 mm 3 mps 665 mmHg 48%
    15:00 +24°C° 0 mm 3 mps 664 mmHg 51%
    16:00 +24°C° 0 mm 3 mps 664 mmHg 53%
    17:00 +21°C° 0 mm 3 mps 664 mmHg 60%
    18:00 +20°C° 0 mm 2 mps 664 mmHg 67%
    19:00 +18°C° 0 mm 2 mps 663 mmHg 74%
    20:00 +17°C° 0 mm 2 mps 663 mmHg 77%
    21:00 +17°C° 0 mm 2 mps 663 mmHg 80%
    22:00 +16°C° 0 mm 1 mps 663 mmHg 83%
    23:00 +16°C° 0 mm 2 mps 663 mmHg 84%
    Show more